Weather History for NFNA - January, 2013

Change the Weather History Date:

Thursday, January 3, 2013

  Actual Average Record
Temperature  
Mean Temperature 80 °F -  
Max Temperature 84 °F - - ()
Min Temperature 75 °F - - ()
Cooling Degree Days 14    
Growing Degree Days 30 (Base 50)    
Moisture  
Dew Point 75 °F    
Average Humidity 86    
Maximum Humidity 100    
Minimum Humidity 70    
Precipitation  
Precipitation 0.63 in - - ()
Sea Level Pressure  
Sea Level Pressure 29.74 in    
Wind  
Wind Speed 4 mph ()    
Max Wind Speed 12 mph    
Max Gust Speed -    
Visibility 14.2 miles    
Events Rain    
T = Trace of Precipitation, MM = Missing Value Source: Averaged Metar Reports

Daily Weather History Graph

Daily Weather History Graph

Search for Another Location

Airport or City:

Trip Planner

Search our weather history database for the weather conditions in past years. The results will help you decide how hot, cold, wet, or windy it might be!

Date:

Astronomy

Jan. 03, 2013 Rise Set
Actual Time 6:34 AM FJST 7:45 PM FJST
Civil Twilight 6:10 AM FJST 8:09 PM FJST
Nautical Twilight 5:42 AM FJST 8:38 PM FJST
Astronomical Twilight 5:12 AM FJST 9:07 PM FJST
Moon 11:35 PM FJST (1/3) 11:11 AM FJST (1/3)
Length of Visible Light 13h 59m
Length of Day
13h 10m
Waning Gibbous, 73% of the Moon is Illuminated
Jan 3
Waning Gibbous
Jan 5
Last Quarter
Jan 12
New
Jan 19
First Quarter
Jan 27
Full

Hourly Weather History & Observations

Time (FJST) Temp. Heat Index Dew Point Humidity Pressure Visibility Wind Dir Wind Speed Gust Speed Precip Events Conditions
12:00 AM 78.8 °F - 73.4 °F 83% 29.80 in 24.9 mi East 4.6 mph - N/A   Mostly Cloudy
1:00 AM 78 °F - 74 °F 83% 29.81 in 12 mi East 4.6 mph - -   Partly Cloudy
1:00 AM 78.8 °F - 73.4 °F 83% 29.80 in 24.9 mi East 4.6 mph - N/A   Mostly Cloudy
2:00 AM 78.8 °F - 73.4 °F 83% 29.77 in 24.9 mi Calm Calm - N/A   Mostly Cloudy
3:00 AM 77.0 °F - 75.2 °F 94% 29.74 in 24.9 mi Calm Calm - N/A   Mostly Cloudy
4:00 AM 78 °F - 75 °F 89% 29.75 in 12 mi East 3.5 mph - - Rain Light Rain Showers
4:00 AM 77.0 °F - 75.2 °F 94% 29.74 in 24.9 mi East 3.5 mph - N/A   Mostly Cloudy
5:00 AM 77.0 °F - 75.2 °F 94% 29.74 in 18.6 mi Variable 3.5 mph - N/A Rain Light Rain Showers
6:00 AM 75.2 °F - 75.2 °F 100% 29.74 in 18.6 mi Variable 3.5 mph - N/A Rain Light Rain Showers
7:00 AM 75 °F - 74 °F 94% 29.77 in 12 mi ENE 5.8 mph - - Rain Light Rain
7:00 AM 75.2 °F - 73.4 °F 94% 29.74 in 18.6 mi ENE 5.8 mph - N/A Rain Light Rain
8:00 AM 75.2 °F - 75.2 °F 100% 29.77 in 24.9 mi Calm Calm - N/A   Mostly Cloudy
9:00 AM 77.0 °F - 75.2 °F 94% 29.77 in 24.9 mi Calm Calm - N/A Rain Light Rain Showers
10:00 AM 82 °F - 76 °F 78% 29.78 in 12 mi NNE 11.5 mph - -   Partly Cloudy
10:00 AM 82.4 °F 90.9 °F 77.0 °F 84% 29.77 in 24.9 mi NNE 11.5 mph - N/A   Mostly Cloudy
11:00 AM 84.2 °F 92.3 °F 75.2 °F 74% 29.77 in 31.1 mi NE 10.4 mph - N/A   Mostly Cloudy
12:00 PM 84.2 °F 90.9 °F 73.4 °F 70% 29.74 in 24.9 mi NE 8.1 mph - N/A   Mostly Cloudy
1:00 PM 82 °F - 75 °F 74% 29.75 in 12 mi NNE 11.5 mph - - Rain Light Rain Showers
1:00 PM 82.4 °F 89.5 °F 75.2 °F 79% 29.74 in 24.9 mi NNE 11.5 mph - N/A   Mostly Cloudy
3:00 PM 82.4 °F 89.5 °F 75.2 °F 79% 29.71 in 24.9 mi NNE 11.5 mph - N/A   Mostly Cloudy
4:00 PM 82 °F - 75 °F 73% 29.70 in 12 mi NNE 11.5 mph - -   Partly Cloudy
4:00 PM 82.4 °F 89.5 °F 75.2 °F 79% 29.68 in 24.9 mi NNE 11.5 mph - N/A   Mostly Cloudy
5:00 PM 80.6 °F 86.2 °F 75.2 °F 84% 29.65 in 24.9 mi NNE 11.5 mph - N/A   Mostly Cloudy
6:00 PM 80.6 °F 86.2 °F 75.2 °F 84% 29.68 in 31.1 mi NNE 5.8 mph - N/A   Mostly Cloudy
7:00 PM 80 °F - 73 °F 74% 29.71 in 31 mi Calm Calm - -   Partly Cloudy
7:00 PM 78.8 °F - 73.4 °F 83% 29.68 in 31.1 mi Calm Calm - N/A   Mostly Cloudy
8:00 PM 78.8 °F - 73.4 °F 83% 29.71 in 31.1 mi Calm Calm - N/A   Mostly Cloudy
9:00 PM 78.8 °F - 78.8 °F 100% 29.71 in 31.1 mi Calm Calm - N/A   Mostly Cloudy
10:00 PM 80 °F - 77 °F 86% 29.73 in 31 mi Calm Calm - -   Partly Cloudy
10:00 PM 78.8 °F - 78.8 °F 100% 29.71 in 31.1 mi Calm Calm - N/A   Scattered Clouds
11:00 PM 80.6 °F 87.1 °F 77.0 °F 89% 29.71 in 24.9 mi Calm Calm - N/A   Scattered Clouds